#timestamp,LO_Frequency,Hit,StdDev 
1503770415.6,286047000.2,N,1.1
1503770435.4,286047001.2,N,1.1
1503770455.3,286047001.2,N,1.1
1503770475.1,286047001.2,N,1.1
1503770495.8,286047000.8,N,1.1
1503770515.7,286047000.9,N,1.0
1503770535.5,286047000.3,N,1.0
1503770555.3,286047000.6,N,1.0
1503770575.2,286046998.1,N,1.1
1503770595.0,286047000.6,N,1.0
1503770595.9,286047000.6,N,1.0
1503770615.8,286047000.6,N,1.0
1503770635.6,286047000.3,N,0.9
1503770655.4,286047000.2,N,0.9
1503770675.3,286047002.8,Y,0.0
1503770695.1,286046999.9,P,0.3
1503770696.0,286046999.9,N,0.3
1503770715.8,286047000.2,N,0.3
1503770735.7,286046999.9,N,0.3
1503770755.5,286047000.5,N,0.3
1503770775.3,286047000.7,N,0.3
1503770795.2,286047000.0,N,0.3
1503770815.9,286047000.1,N,0.3
1503770835.7,286047000.3,N,0.3
1503770855.6,286047002.2,Y,0.0
1503770875.4,286047000.0,P,0.1
1503770895.2,286047000.4,P,0.2
1503770915.1,286047002.0,P,0.8
1503770916.0,286047002.0,N,0.9
1503770935.8,286047001.7,N,0.9
1503770955.6,286047002.8,Y,0.0
1503770975.5,286046998.2,P,1.4
1503770995.3,286047001.2,N,1.4
1503771015.1,286047001.2,N,1.3
1503771035.9,286047000.8,N,1.2
1503771055.7,286046998.6,N,1.3
1503771075.5,286046998.1,N,1.4
1503771095.4,286047000.8,N,1.3
1503771115.2,286047001.0,N,1.3
1503771135.0,286047001.0,N,1.3
1503771135.9,286047001.0,N,1.2
1503771155.8,286047002.8,N,1.4
1503771175.6,286047000.6,N,1.3
1503771195.4,286047002.6,N,1.4
1503771215.3,286047001.9,N,1.4
1503771235.1,286047001.6,N,1.3
1503771255.9,286047004.0,N,1.5
1503771275.7,286047001.4,N,1.5
1503771295.5,286047004.0,N,1.6
1503771315.4,286047004.0,N,1.7
1503771335.2,286047004.0,N,1.7
1503771355.0,286047001.5,N,1.7
1503771355.9,286047001.5,N,1.6
1503771375.8,286047004.1,N,1.7
1503771395.6,286047004.2,N,1.7
1503771415.4,286047003.8,N,1.8
1503771435.3,286047004.0,N,1.8
1503771455.1,286047004.4,N,1.8
1503771475.8,286047001.4,N,1.8
1503771495.7,286047004.2,N,1.8
1503771515.5,286047001.7,N,1.8
1503771535.3,286047001.7,N,1.6
1503771555.2,286047002.3,N,1.6
1503771575.0,286047002.0,N,1.6
1503771575.9,286047002.0,N,1.6
1503771595.7,286047002.3,N,1.5
1503771615.6,286047002.8,N,1.2
1503771635.4,286047000.1,N,1.3
1503771655.2,286047000.4,N,1.3
1503771675.1,286047001.0,N,1.3
1503771676.0,286047001.0,N,1.3
1503771695.8,286047000.0,N,1.4
1503771715.7,286047000.7,N,1.4
1503771735.5,286047001.1,N,1.4
1503771755.3,286047001.1,N,1.4
1503771775.2,286047000.8,N,1.4
1503771795.9,286046998.5,N,1.5
1503771815.7,286047001.1,N,1.5
1503771835.6,286046998.3,N,1.6
1503771855.4,286046999.4,N,1.6
1503771875.2,286046998.6,N,1.7
1503771895.1,286046998.9,N,1.7
1503771896.0,286046998.9,N,1.8
1503771915.8,286046999.3,N,1.8
1503771935.6,286046998.3,N,1.7
1503771955.5,286046998.7,N,1.7
1503771975.3,286046999.2,N,1.6
1503771995.1,286046999.4,N,1.5
1503772015.9,286046998.8,N,1.5
1503772035.7,286046999.0,N,1.4
1503772055.5,286046999.0,N,1.4
1503772075.4,286046998.5,N,1.4
1503772095.2,286046998.6,N,1.3
1503772115.0,286046998.7,N,1.3
1503772115.9,286046998.7,N,1.2
1503772135.8,286046998.8,N,1.1
1503772155.6,286046998.2,N,1.0
1503772175.4,286046998.9,N,1.0
1503772195.3,286046999.0,N,1.0
1503772215.1,286047000.8,N,1.0
1503772235.8,286047001.2,N,1.0
1503772255.7,286047001.1,N,1.0
1503772275.5,286046998.3,N,1.0
1503772295.3,286046998.1,N,1.0
1503772315.2,286046998.6,N,0.9
1503772335.0,286046999.4,N,0.8
1503772335.9,286046999.4,N,0.8
1503772355.7,286046997.0,Y,0.0
1503772375.6,286046998.2,P,0.5
1503772395.4,286047000.3,N,0.9
1503772415.2,286047001.0,N,1.1
1503772435.1,286047000.3,N,1.0
1503772436.0,286047000.3,N,0.9
1503772455.8,286047000.3,N,0.9
1503772475.7,286047000.6,N,0.8
1503772495.5,286047000.7,N,0.8
1503772515.3,286047001.1,N,0.8
1503772535.2,286046998.2,N,1.0
1503772555.9,286046998.3,N,1.1
1503772575.7,286047001.2,N,1.1
1503772595.6,286047000.9,N,1.1
1503772615.4,286047001.1,N,1.1
1503772635.2,286047001.0,N,1.0
1503772655.1,286047000.7,N,1.0
1503772656.0,286047000.7,N,1.0
1503772675.8,286046998.3,N,1.1
1503772695.6,286047000.3,N,1.0
1503772715.5,286047000.6,N,1.0
1503772735.3,286047000.8,N,1.0
1503772755.1,286047000.6,N,1.0
1503772775.9,286047000.5,N,1.0
1503772795.7,286047002.5,N,1.0
1503772815.5,286047000.4,N,1.0
1503772835.4,286047000.0,N,1.0
1503772855.2,286047000.2,N,1.0
1503772875.0,286047000.3,N,1.0
1503772875.9,286047000.3,N,1.0
1503772895.8,286047000.0,N,0.9
1503772915.6,286047002.4,N,0.9
1503772935.4,286047000.3,N,0.9
1503772955.3,286047000.3,N,0.9
1503772975.1,286047000.3,N,0.9
1503772995.8,286047000.3,N,0.9
1503773015.7,286047000.5,N,0.9
1503773035.5,286047000.9,N,0.9
1503773055.3,286047000.0,N,0.9
1503773105.2,286047000.3,E,nan
1503773115.1,286047000.0,N,0.0
1503773135.9,286047002.8,P,1.4
1503773155.7,286047000.2,N,1.3
1503773175.5,286047002.3,N,1.2
1503773195.4,286047000.1,N,1.2
1503773215.2,286047000.3,N,1.1
1503773235.0,286047001.0,N,1.1
1503773235.9,286047001.0,N,1.0
1503773255.8,286047000.7,N,0.9
1503773275.6,286047002.4,N,1.0
1503773295.4,286047002.3,N,1.0
1503773315.3,286046999.9,N,1.0
1503773335.1,286047000.0,N,1.0
1503773355.8,286047002.7,N,1.1
1503773375.7,286047001.9,N,1.1
1503773395.5,286047002.5,N,1.1
1503773415.3,286046999.8,N,1.1
1503773435.2,286047001.5,N,1.1
1503773455.0,286047004.1,Y,0.0
1503773455.9,286047004.1,P,1.5
1503773475.8,286047002.7,N,1.2
1503773495.6,286047002.8,N,1.0
1503773515.4,286047000.4,N,1.3
1503773535.3,286047000.6,N,1.3
1503773555.1,286047000.5,N,1.3
1503773556.0,286047000.5,N,1.3
1503773575.8,286047000.8,N,1.3
1503773595.7,286046998.4,N,1.5
1503773615.5,286047001.2,N,1.5
1503773635.3,286047000.9,N,1.4
1503773655.2,286047000.1,N,1.4
1503773675.0,286047002.4,N,1.4
1503773675.9,286047002.4,N,1.3
1503773695.7,286047000.1,N,1.3
1503773715.6,286047000.0,N,1.3
1503773735.4,286047000.8,N,1.3
1503773755.2,286047000.9,N,1.3
1503773775.1,286047002.8,N,1.3
1503773776.0,286047002.8,N,1.3
1503773795.8,286047000.1,N,1.3
1503773815.6,286047002.8,N,1.3
1503773835.5,286047002.1,N,1.3
1503773855.3,286047002.2,N,1.3
1503773875.2,286046999.7,N,1.3
1503773895.9,286047002.1,N,1.3
1503773915.7,286047002.1,N,1.3
1503773935.6,286047002.1,N,1.2
1503773955.4,286047001.6,N,1.2
1503773975.2,286047002.0,N,1.2
1503773995.1,286047001.8,N,1.1
1503773996.0,286047001.8,N,1.1
